Date String (YYYY-MM-DD hh:mm:ss) UTC,Instrument flags,absolute air pressure of the measurement (hPa),sample flow rate (lpm),inlet stack bypass flow (lpm),air temperature of the measurement (°C),ambient temperature measured by the external sensor (°C),aerosol sample conditioner tube jacket temperature (°C),OPC LED temperature (°C),internal box temperature (°C),relative humidity of the measurement (%),span deviation,mass concentration of particles derived from Lorenz-Mie calculation of OPC scattering (μg/m³),mass concentration of particles derived from Lorenz-Mie calculation of OPC scattering (μg/m³),mass concentration of particles derived from Lorenz-Mie calculation of OPC scattering (μg/m³)
DateTimeUTC,F1_M11,P_M11,Q1_M11,Q2_M11,T1_M11,T2_M11,T3_M11,T4_M11,T5_M11,U1_M11,ZSPAN_M11,X0_M11,X2_M11,X1_M11
2023-11-19 14:00:00,SystemResetWarning,0822.0,5.00,000.00,023.6,022.6,000.0,032.0,025.0,14.1,0000.0,0004.02,0001.01,0000.76
2023-11-19 14:01:00,SystemResetWarning,0822.0,5.00,000.00,023.6,022.6,000.0,032.0,025.0,14.2,0000.0,0004.04,0001.03,0000.76
2023-11-19 14:02:00,SystemResetWarning,0822.0,4.99,000.00,023.6,022.6,000.0,032.0,025.0,14.5,0000.0,0004.15,0001.09,0000.77
2023-11-19 14:03:00,SystemResetWarning,0821.9,5.00,000.00,023.6,022.7,000.0,032.0,025.0,14.9,0000.0,0003.99,0001.07,0000.77
2023-11-19 14:04:00,SystemResetWarning,0821.9,5.00,000.00,023.6,022.6,000.0,032.0,025.0,14.1,0000.0,0003.83,0001.04,0000.77
2023-11-19 14:05:00,SystemResetWarning,0822.0,5.00,000.00,023.6,022.6,000.0,032.0,025.0,13.9,0000.0,0003.80,0001.03,0000.77
2023-11-19 14:06:00,SystemResetWarning,0822.0,5.01,000.00,023.6,022.7,000.0,032.0,025.0,13.9,0000.0,0003.67,0001.04,0000.77
2023-11-19 14:07:00,SystemResetWarning,0822.0,5.00,000.00,023.7,022.6,000.0,032.0,025.0,14.3,0000.0,0002.60,0001.09,0000.79
2023-11-19 14:08:00,SystemResetWarning,0822.0,5.01,000.00,023.6,022.7,000.0,032.0,025.0,14.3,0000.0,0002.76,0001.12,0000.78
2023-11-19 14:09:00,SystemResetWarning,0822.0,5.00,000.00,023.7,022.6,000.0,032.0,025.0,14.4,0000.0,0002.30,0001.12,0000.78
2023-11-19 14:10:00,SystemResetWarning,0822.0,5.00,000.00,023.7,022.7,000.0,032.0,025.0,14.7,0000.0,0001.96,0001.08,0000.77
2023-11-19 14:11:00,SystemResetWarning,0822.0,5.00,000.00,023.7,022.7,000.0,032.0,025.0,14.8,0000.0,0001.87,0001.04,0000.76
2023-11-19 14:12:00,SystemResetWarning,0821.9,5.00,000.00,023.7,022.7,000.0,032.0,025.0,14.8,0000.0,0001.85,0001.00,0000.75
2023-11-19 14:13:00,SystemResetWarning,0821.9,5.00,000.00,023.7,022.7,000.0,032.0,025.0,14.8,0000.0,0002.10,0000.96,0000.74
2023-11-19 14:14:00,SystemResetWarning,0821.9,5.00,000.00,023.7,022.7,000.0,032.0,025.0,14.7,0000.0,0002.15,0000.97,0000.74
2023-11-19 14:15:00,SystemResetWarning,0822.0,5.00,000.00,023.7,022.7,000.0,032.0,025.0,14.7,0000.0,0002.56,0000.97,0000.74
2023-11-19 14:16:00,SystemResetWarning,0822.0,5.00,000.00,023.7,022.7,000.0,032.0,025.1,14.6,0000.0,0003.70,0000.97,0000.73
2023-11-19 14:17:00,SystemResetWarning,0822.0,5.00,000.00,023.7,022.8,000.0,032.0,025.1,14.7,0000.0,0003.72,0000.97,0000.73
2023-11-19 14:18:00,SystemResetWarning,0822.0,5.00,000.00,023.7,022.8,000.0,032.0,025.0,14.9,0000.0,0003.53,0000.92,0000.72
2023-11-19 14:19:00,SystemResetWarning,0822.0,5.01,000.00,023.7,022.8,000.0,032.0,025.1,15.3,0000.0,0003.39,0000.90,0000.72
2023-11-19 14:20:00,SystemResetWarning,0822.0,5.00,000.00,023.7,022.8,000.0,032.0,025.1,15.5,0000.0,0003.46,0000.93,0000.72
2023-11-19 14:21:00,SystemResetWarning,0822.0,5.00,000.00,023.8,022.9,000.0,032.0,025.1,15.5,0000.0,0003.56,0000.97,0000.73
2023-11-19 14:22:00,SystemResetWarning,0822.0,5.00,000.00,023.8,022.9,000.0,032.0,025.1,15.4,0000.0,0003.65,0001.01,0000.74
2023-11-19 14:23:00,SystemResetWarning,0822.0,5.01,000.00,023.8,022.9,000.0,032.0,025.2,15.4,0000.0,0003.69,0001.02,0000.73
2023-11-19 14:24:00,SystemResetWarning,0821.9,4.99,000.00,023.8,022.9,000.0,032.0,025.2,15.6,0000.0,0003.30,0001.03,0000.74
2023-11-19 14:25:00,SystemResetWarning,0822.0,5.00,000.00,023.8,022.9,000.0,032.1,025.1,15.8,0000.0,0003.24,0001.01,0000.74
2023-11-19 14:26:00,SystemResetWarning,0821.9,5.00,000.00,023.8,022.9,000.0,032.1,025.2,15.6,0000.0,0003.20,0001.02,0000.75
2023-11-19 14:27:00,SystemResetWarning,0821.9,5.00,000.00,023.8,023.0,000.0,032.1,025.2,15.6,0000.0,0001.67,0001.04,0000.76
2023-11-19 14:28:00,SystemResetWarning,0821.9,5.00,000.00,023.8,022.9,000.0,032.1,025.1,15.5,0000.0,0001.76,0001.07,0000.78
2023-11-19 14:29:00,SystemResetWarning,0821.9,5.00,000.00,023.8,022.9,000.0,032.1,025.1,15.5,0000.0,0001.76,0001.11,0000.80
2023-11-19 14:30:00,SystemResetWarning,0821.9,5.00,000.00,023.8,023.0,000.0,032.1,025.1,15.5,0000.0,0001.86,0001.13,0000.81
2023-11-19 14:31:00,SystemResetWarning,0822.0,5.00,000.00,023.8,023.0,000.0,032.1,025.2,15.4,0000.0,0003.05,0001.14,0000.82
2023-11-19 14:32:00,SystemResetWarning,0822.0,5.00,000.00,023.9,023.0,000.0,032.1,025.2,15.4,0000.0,0003.06,0001.13,0000.83
2023-11-19 14:33:00,SystemResetWarning,0822.0,5.00,000.00,023.9,023.0,000.0,032.1,025.2,15.4,0000.0,0003.01,0001.12,0000.84
2023-11-19 14:34:00,SystemResetWarning,0822.0,5.00,000.00,023.9,023.0,000.0,032.1,025.2,15.3,0000.0,0003.07,0001.14,0000.86
2023-11-19 14:35:00,SystemResetWarning,0822.0,5.00,000.00,023.9,023.0,000.0,032.1,025.2,15.3,0000.0,0003.12,0001.15,0000.87
2023-11-19 14:36:00,SystemResetWarning,0822.0,5.00,000.00,023.9,023.1,000.0,032.1,025.3,14.9,0000.0,0003.31,0001.16,0000.88
2023-11-19 14:37:00,SystemResetWarning,0822.0,5.01,000.00,023.9,023.1,000.0,032.1,025.3,14.8,0000.0,0004.40,0001.19,0000.88
2023-11-19 14:38:00,SystemResetWarning,0822.0,5.00,000.00,023.9,023.1,000.0,032.2,025.3,14.8,0000.0,0004.63,0001.20,0000.88
2023-11-19 14:39:00,SystemResetWarning,0822.0,4.99,000.00,023.9,023.1,000.0,032.2,025.3,14.8,0000.0,0005.07,0001.21,0000.88
2023-11-19 14:40:00,SystemResetWarning,0822.0,5.00,000.00,024.0,023.1,000.0,032.2,025.3,14.9,0000.0,0005.08,0001.23,0000.88
2023-11-19 14:41:00,SystemResetWarning,0822.0,5.00,000.00,024.0,023.1,000.0,032.2,025.3,15.2,0000.0,0005.29,0001.26,0000.87
2023-11-19 14:42:00,SystemResetWarning,0822.0,5.00,000.00,024.0,023.1,000.0,032.2,025.3,15.4,0000.0,0004.95,0001.25,0000.87
2023-11-19 14:43:00,SystemResetWarning,0822.0,5.00,000.00,024.0,023.1,000.0,032.2,025.3,15.6,0000.0,0004.85,0001.21,0000.87
2023-11-19 14:44:00,SystemResetWarning,0822.0,5.00,000.00,024.0,023.2,000.0,032.2,025.4,15.6,0000.0,0004.79,0001.19,0000.86
2023-11-19 14:45:00,SystemResetWarning,0822.0,5.00,000.00,024.0,023.2,000.0,032.2,025.4,15.6,0000.0,0004.81,0001.18,0000.85
2023-11-19 14:46:00,SystemResetWarning,0822.0,5.00,000.00,024.0,023.2,000.0,032.2,025.4,15.5,0000.0,0004.82,0001.18,0000.84
2023-11-19 14:47:00,SystemResetWarning,0822.0,5.00,000.00,024.0,023.2,000.0,032.2,025.4,15.6,0000.0,0004.78,0001.15,0000.83
2023-11-19 14:48:00,SystemResetWarning,0822.0,5.00,000.00,024.0,023.2,000.0,032.2,025.4,15.5,0000.0,0003.68,0001.13,0000.82
2023-11-19 14:49:00,SystemResetWarning,0822.0,5.00,000.00,024.0,023.2,000.0,032.3,025.4,15.3,0000.0,0003.54,0001.11,0000.82
2023-11-19 14:50:00,SystemResetWarning,0822.0,5.01,000.00,024.1,023.2,000.0,032.3,025.5,15.2,0000.0,0002.88,0001.13,0000.84
2023-11-19 14:51:00,SystemResetWarning,0821.9,5.00,000.00,024.1,023.2,000.0,032.3,025.5,15.3,0000.0,0002.88,0001.13,0000.84
2023-11-19 14:52:00,SystemResetWarning,0822.0,5.00,000.00,024.1,023.2,000.0,032.3,025.5,15.2,0000.0,0002.90,0001.13,0000.86
2023-11-19 14:53:00,SystemResetWarning,0822.0,5.00,000.00,024.1,023.3,000.0,032.3,025.5,15.2,0000.0,0002.66,0001.17,0000.86
2023-11-19 14:54:00,SystemResetWarning,0822.0,5.00,000.00,024.1,023.3,000.0,032.3,025.5,15.2,0000.0,0002.82,0001.22,0000.87
2023-11-19 14:55:00,SystemResetWarning,0822.0,5.00,000.00,024.1,023.3,000.0,032.3,025.5,15.2,0000.0,0003.66,0001.31,0000.89
2023-11-19 14:56:00,SystemResetWarning,0822.0,5.00,000.00,024.1,023.3,000.0,032.3,025.5,15.3,0000.0,0004.30,0001.40,0000.91
2023-11-19 14:57:00,SystemResetWarning,0822.0,5.00,000.00,024.1,023.3,000.0,032.3,025.5,15.5,0000.0,0004.55,0001.49,0000.92
2023-11-19 14:58:00,SystemResetWarning,0822.0,5.00,000.00,024.1,023.3,000.0,032.4,025.5,15.6,0000.0,0005.43,0001.54,0000.94
2023-11-19 14:59:00,SystemResetWarning,0822.0,4.99,000.00,024.1,023.3,000.0,032.4,025.5,15.8,0000.0,0007.51,0001.63,0000.96
